Regional Weather Roundup
Issued by NWS Austin/San Antonio, TX

Home | Current Version | Previous Version | Text Only | Print | Product List | Glossary On
Versions: 1 2 3 4 5 6 7 8 9 10 11 12 13 14 15 16 17 18 19 20 21 22 23 24 25 26 27 28 29 30 31 32 33 34 35 36 37 38 39 40 41 42 43 44 45 46 47 48 49 50
000
ASUS44 KEWX 270311
RWREWX
SOUTH TEXAS REGIONAL WEATHER ROUNDUP
NATIONAL WEATHER SERVICE AUSTIN/SAN ANTONIO TX
900 PM CST SUN JAN 26 2020

NOTE: "FAIR" INDICATED FEW OR NO CLOUDS BELOW 12,000 FEET WITH NO
SIGNIFICANT WEATHER AND/OR OBSTRUCTIONS TO VISIBILITY.

* - THESE STATIONS ARE NOT NWS OR FAA STATIONS...AND ARE NOT SUBJECT
    TO NWS AND FAA QUALITY CONTROL.

TXZ171-172-183>190-270400-
TEXAS HILL COUNTRY AND EDWARDS PLATEAU

CITY           SKY/WX    TMP DP  RH WIND       PRES   REMARKS
JUNCTION       CLEAR     58  41  53 CALM      30.03R
*LLANO         CLEAR     52  45  76 CALM      30.05R
BURNET         CLEAR     56  42  59 NE5       30.04R
*HORSESHOE BAY CLEAR     48  45  87 E3        30.01R
*LAGO VISTA    CLEAR     58  48  68 NE7       30.02R
*KERRVILLE     CLEAR     51  43  75 CALM      30.03R
*FREDERICKSBRG CLEAR     50  43  77 N3        30.02R
*ROCKSPRINGS   CLEAR     61  34  36 CALM      30.06S
*BOERNE        CLEAR     50  45  81 CALM      30.03R
*CASTROVILLE   CLEAR     62  46  57 NE6       30.00R
HONDO          CLEAR     57  46  66 CALM      29.98R
*UVALDE        CLEAR     58  42  54 NE8       29.99R
DEL RIO        CLEAR     64  36  35 CALM      29.96R
*LAUGHLIN AFB  NOT AVBL
*SPOFFORD      NOT AVBL
*EAGLE PASS    CLEAR     57  39  51 N5        29.97R
CARRIZO SPRGS  CLEAR     57  36  44 S3        29.95R
*FAITH RANCH   CLEAR     64  36  34 E5        29.97R
$$

TXZ173-191>194-202-209-217>225-228-270400-
CENTRAL AND SOUTH CENTRAL TEXAS

CITY           SKY/WX    TMP DP  RH WIND       PRES   REMARKS
GEORGETOWN     CLEAR     57  50  77 CALM      30.04R
*TAYLOR        CLEAR     58  51  77 NE8       30.02R
AUSTIN/BERGSTM CLEAR     60  50  69 NE7       30.00R
AUSTIN/MABRY   CLEAR     62  50  64 VRB3      30.01R
*PFLUGERVILLE  CLOUDY    55  50  82 NE6       30.02R
SAN MARCOS     CLEAR     56  47  71 NE8       30.01R
NEW BRAUNFELS  CLEAR     62  44  51 N3        29.99R
*RANDOLPH AFB  CLEAR     60  48  64 N3        29.99R
*SEGUIN        CLEAR     57  45  62 CALM      30.03R
SAN ANTONIO    CLEAR     64  45  49 NE5       30.00R
STINSON FIELD  CLEAR     59  48  67 NE3       29.97R
*KELLY FIELD   CLEAR     59  47  64 NE6       29.97R
*PLEASANTON    CLEAR     59  46  61 CALM      29.98R
*KENEDY        CLEAR     57  50  77 CALM      29.99R
*LA GRANGE     CLEAR     61  51  70 NE3       29.98R
*GIDDINGS      CLEAR     59  51  73 CALM      30.02R
*GONZALES      CLEAR     61  47  58 E5        29.99R
$$

TXZ163>164-176>182-195>201-210>213-226-227-235-270400-
SOUTHEAST TEXAS

CITY           SKY/WX    TMP DP  RH WIND       PRES   REMARKS
COLLEGE STN    CLEAR     58  50  75 N3        30.00R
*BRYAN         CLEAR     56  51  82 CALM      30.01S
*CALDWELL      CLEAR     55  51  85 CALM      30.02R
*CROCKETT      NOT AVBL
*BRENHAM       CLEAR     56  51  84 N3        30.02R
HUNTSVILLE     CLEAR     55  50  83 CALM      30.00R
CONROE         CLEAR     52  51  97 N3        30.00R
HOUSTON BUSH   CLEAR     58  54  86 CALM      29.98R
HOUSTON HOBBY  FAIR      62  55  77 SE3       29.97R
*HOUSTON SW AP FAIR      59  57  91 E5        29.99R
PEARLAND       FAIR      59  54  83 CALM      29.99R
HOUSTON HOOKS  FAIR      57  51  80 NW6       29.99R
ELLINGTON FLD  NOT AVBL
SUGAR LAND     FAIR      56  52  86 CALM      29.97R
*HOUSTON EXEC  FAIR      57  52  82 N7        30.01R
*CLEVELAND MUN FAIR      54  53  96 CALM      30.00R FOG
*WHARTON       CLEAR     57  52  83 CALM      29.99R
*COLUMBUS      FAIR      57  44  62 N5        30.01R
*EAGLE LAKE    CLEAR     60  52  76 N7        29.99
$$

TXZ214>216-236>238-270400-
THE UPPER TEXAS COAST

CITY           SKY/WX    TMP DP  RH WIND       PRES   REMARKS
*ORANGE        MOCLDY    57  55  95 NE5       30.00S FOG
PORT ARTHUR    FAIR      57  55  93 NE3       29.98S
GALVESTON      FAIR      62  60  93 E6        29.98R
ANGLETON       FOG       59  57  93 CALM      29.98R VSB 3/4
*BAY CITY      CLEAR     61  57  85 CALM      29.97R
PALACIOS       CLEAR     60  54  80 NE3       29.97R
$$

TXZ229>234-239>247-270400-
TEXAS COASTAL BEND AND RIO GRANDE PLAINS

CITY           SKY/WX    TMP DP  RH WIND       PRES   REMARKS
VICTORIA       CLEAR     59  51  75 NE3       29.98R
*BEEVILLE      NOT AVBL
ROCKPORT       CLEAR     62  58  86 S6        29.97R FOG
*PORT ARANSAS  CLEAR     61  60  95 S5        29.99S
*PORT LAVACA   NOT AVBL
*INGLESIDE     FOG       59  59  99 S5        29.98R VSB 1/4
CORPUS CHRISTI CLEAR     59  56  89 S5        29.97R
CORPUS NAS     CLEAR     57  57 100 SE7       29.98R FOG
*ROBSTOWN      CLEAR     58  49  71 S5        29.98R
ALICE          CLEAR     61  53  75 SE6       29.97R
KINGSVILLE NAS CLEAR     57  56  96 S7        29.98R
COTULLA        CLEAR     66  46  48 SE3       29.96R
LAREDO         CLEAR     64  42  44 SE3       29.96R
$$

TXZ248>255-270400-
DEEP SOUTH TEXAS

CITY           SKY/WX    TMP DP  RH WIND       PRES   REMARKS
BROWNSVILLE    CLOUDY    64  61  90 E8        29.99R
PORT ISABEL    MOCLDY    63  61  93 E6        29.98R
HARLINGEN        N/A     62  61  96 E7        29.98R
*HEBBRONVILLE  CLEAR     62  46  55 CALM      29.99R
MCALLEN        CLEAR     70  60  70 E9        29.98R
*WESLACO       MOCLDY    64  60  85 E6        29.98
FALFURRIAS     CLEAR     64  58  79 E6        29.98R
EDINBURG       FAIR      63  57  80 E5        29.99R
*ZAPATA        FAIR      60  44  55 CALM      29.97R
$$

TXZ213>215-236>238-242>244-246-247-251-254-255-270400-
CMAN STATIONS

STATION/POSITION TIME  TEMP    WIND        PRES    WAVE
                       AIR SEA DIR/SP/G            HT/PER
                 (UTC) (F)     (DEG/KT/KT) (MB)    (FT/S)
SABINE PASS      0218   58 61   30/  5/  6 1016.9
SEA RIM ST PARK  0300   56      50/  6/  7 1015.2
NORTH JETTY/GLS  0218   61 60   90/  9/ 11 1013.6
EAGLE POINT      0218   62 61   60/  6/  7 1014.1
MORGANS POINT    0218   61 60   90/  3/  4 1014.8
PORT O`CONNOR    0218   64 65     CALM     1014.3
PORT ARANSAS     0300   62 62  190/  6/  6 1015.0
MALAQUITE BEACH  0218   61 63  110/  6/  6 1014.5
BAFFIN BAY       0218   63 68  100/  6/  8 1015.2
PORT ISABEL      0218   63 67   50/ 10/ 12 1015.4
$$



USA.gov is the U.S. government's official web portal to all federal, state and local government web resources and services.